#timestamp,LO_Frequency,Hit,StdDev 
1553292015.8,286047004.3,N
1553292035.7,286047002.5,N
1553292055.5,286046999.9,N
1553292075.4,286046999.5,N
1553292095.2,286046997.1,N
1553292115.0,286046997.7,N
1553292115.9,286046997.7,N
1553292135.8,286046997.5,N
1553292155.6,286046998.0,N
1553292175.5,286046995.0,N
1553292195.3,286046995.3,N
1553292215.1,286046997.0,N
1553292235.9,286046999.0,N
1553292255.7,286046999.3,N
1553292305.6,286046997.7,E
1553292315.5,286046998.7,N
1553292335.3,286047002.8,P
1553292355.2,286047001.5,N
1553292375.0,286047003.7,N
1553292375.9,286047003.7,N
1553292395.8,286047003.7,N
1553292415.6,286047004.1,N
1553292435.4,286047003.5,N
1553292455.3,286047002.2,N
1553292475.1,286047002.6,N
1553292495.9,286047003.8,N
1553292515.7,286047004.2,N
1553292535.5,286047003.1,N
1553292555.4,286047003.8,N
1553292575.2,286047005.6,Y
1553292595.1,286046999.8,P
1553292596.0,286046999.8,N
1553292615.8,286047000.6,N
1553292635.6,286046998.5,N
1553292655.5,286046998.6,N
1553292675.3,286046999.4,N
1553292695.1,286047000.7,N
1553292715.9,286046998.6,N
1553292735.7,286046998.8,N
1553292755.6,286046996.9,N
1553292775.4,286046995.5,Y
1553292795.2,286046995.2,P
1553292815.1,286046999.1,N
1553292816.0,286046999.1,N
1553292835.8,286046997.7,N
1553292855.6,286046997.2,N
1553292875.5,286046997.8,N
1553292895.3,286046996.9,N
1553292915.2,286046997.0,N
1553292935.0,286046995.7,Y
1553292935.9,286046995.7,P
1553292955.7,286046999.0,N
1553292975.6,286046998.4,N
1553292995.4,286046998.6,N
1553293015.3,286046996.7,N
1553293035.1,286046999.1,N
1553293055.8,286046999.3,N
1553293075.7,286046999.2,N
1553293095.5,286047000.3,N
1553293115.4,286047001.3,N
1553293135.2,286047002.3,N
1553293155.0,286047002.0,N
1553293155.9,286047002.0,N
1553293175.8,286046999.8,N
1553293195.6,286047000.5,N
1553293215.4,286047000.0,N
1553293235.3,286047002.5,N
1553293255.1,286047000.1,N
1553293275.9,286047000.2,N
1553293295.7,286047002.7,N
1553293315.5,286047002.1,N
1553293335.4,286047000.5,N
1553293355.2,286047004.2,N
1553293375.0,286047005.5,N
1553293375.9,286047005.5,N
1553293395.8,286047001.3,N
1553293415.6,286047004.8,N
1553293435.5,286047002.1,N
1553293455.3,286047002.1,N
1553293475.1,286047002.4,N
1553293495.9,286047001.6,N
1553293515.7,286047004.1,N
1553293535.5,286047005.8,N
1553293555.4,286047004.0,N
1553293575.2,286047003.6,N
1553293595.1,286047004.5,N
1553293596.0,286047004.5,N
1553293615.8,286047005.8,Y
1553293635.7,286047001.6,P
1553293655.5,286047003.8,P
1553293675.3,286047000.3,N
1553293695.2,286047000.9,N
1553293715.0,286046998.5,N
1553293715.9,286046998.5,N
1553293735.7,286046999.2,N
1553293755.6,286046998.7,N
1553293775.4,286046998.8,N
1553293795.3,286047000.9,N
1553293815.1,286046998.1,N
1553293835.8,286047002.2,N
1553293855.7,286047001.0,N
1553293875.5,286047000.4,N
1553293895.4,286047001.0,N
1553293915.2,286047000.9,N
1553293935.0,286047001.2,N
1553293935.9,286047001.2,N
1553293955.8,286046998.3,N
1553293975.6,286046999.3,N
1553293995.4,286046999.8,N
1553294015.3,286047002.5,N
1553294035.1,286047002.2,N
1553294055.9,286046998.4,N
1553294105.7,286047001.2,E
1553294115.6,286046999.6,N
1553294135.5,286046997.5,P
1553294155.3,286046996.7,P
1553294175.1,286046996.9,N
1553294195.9,286046999.6,N
1553294215.7,286047000.7,N
1553294235.6,286047002.1,N
1553294255.4,286046999.8,N
1553294275.2,286047000.7,N
1553294295.1,286047002.4,N
1553294296.0,286047002.4,N
1553294315.8,286046998.6,N
1553294335.6,286046999.1,N
1553294355.5,286047000.8,N
1553294375.3,286047004.3,N
1553294395.2,286047003.0,N
1553294415.9,286047004.4,N
1553294435.7,286047005.6,N
1553294455.6,286047003.5,N
1553294475.4,286047003.9,N
1553294495.2,286047002.2,N
1553294515.1,286046999.7,N
1553294516.0,286046999.7,N
1553294535.8,286046999.9,N
1553294555.7,286046999.7,N
1553294575.5,286046998.7,N
1553294595.3,286046996.5,N
1553294615.2,286046996.9,N
1553294635.0,286046998.2,N
1553294635.9,286046998.2,N
1553294655.7,286046998.1,N
1553294675.6,286047001.6,N
1553294695.4,286047002.6,N
1553294715.3,286047001.6,N
1553294735.1,286046999.0,N
1553294755.8,286046999.2,N
1553294775.7,286047011.9,Y
1553294795.5,286046998.7,P
1553294815.4,286046999.2,N
1553294835.2,286046998.9,N
1553294855.0,286046999.6,N
1553294855.9,286046999.6,N
1553294875.8,286046999.6,N
1553294895.6,286046999.5,N
1553294915.5,286047002.3,Y
1553294935.3,286047001.0,P
1553294955.1,286046999.0,N
1553294975.9,286046997.6,N
1553294995.7,286046997.9,N
1553295015.5,286046997.0,N
1553295035.4,286046996.5,N
1553295055.2,286046998.5,N
1553295075.1,286047000.2,N
1553295076.0,286047000.2,N
1553295095.8,286046998.9,N
1553295115.6,286046996.8,N
1553295135.5,286047001.1,N
1553295155.3,286047000.7,N
1553295175.2,286047001.4,N
1553295195.9,286046999.9,N
1553295215.7,286046999.4,N
1553295235.6,286046996.7,N
1553295255.4,286046996.2,N
1553295275.2,286046995.1,N
1553295295.1,286046995.3,N
1553295296.0,286046995.3,N
1553295315.8,286046996.5,N
1553295335.7,286046998.9,N
1553295355.5,286047000.8,N
1553295375.3,286047000.8,N
1553295395.2,286046999.7,N
1553295415.9,286047001.9,N
1553295435.7,286047002.9,N
1553295455.6,286047005.7,N
1553295475.4,286047001.8,N
1553295495.2,286047003.9,N
1553295515.1,286047002.2,N
1553295516.0,286047002.2,N
1553295535.8,286047002.8,N
1553295555.7,286047002.7,N
1553295575.5,286046998.9,N
1553295595.3,286046996.8,N
